Weather in Vinnikovo

Russia / Amur Oblast     49°32′15″N   129°17′36″E
temp.,
°C
wind,
m/s
gust,
m/s
humid.,
%
clouds,
%
prec.,
mm/h
press.,
hPa
HPBL,
m
16 may, sun
sun1600:00+10w512671 0.0 1001267
03:00+8wsw410750 0.0 1001198
06:00+8wsw310730 0.0 1002294
09:00+14wnw610490 0.0 1002883
12:00+19wnw610343 0.0 10022252
15:00+21wnw69265 0.0 10002945
18:00+20w23375 0.0 999138
21:00+13sw33490 0.0 100022
17 may, mon
mon1700:00+12sw334680 0.0 100026
03:00+10sw33530 0.0 99931
06:00+10wsw25641 0.0 999119
09:00+17w46445 0.0 999538
12:00+21wnw45395 0.0 10001457
15:00+22nw463623 0.0 9992388
18:00+21n22419 0.0 998652
21:00+15ese47568 0.0 99895
18 may, tue
tue1800:00+13ene476325 0.0 99695
03:00+12e116898 0.0 99416
06:00+10n3669100 0.0 995255
09:00+12wnw456188 0.0 998576
12:00+16wnw45525 0.0 9981118
15:00+18wnw784425 0.0 9992057
18:00+14n595536 0.0 1001356
21:00+11n386998 0.0 1003171
19 may, wed
wed1900:00+8ne227399 0.0 100518
03:00+7ese117128 0.0 100610
06:00+8e24710 0.0 1006117
09:00+15sse34525 0.0 1005684
12:00+20w58315 0.0 10042475
15:00+22wnw6102719 0.0 10033100
18:00+19nne454221 0.0 1004205
21:00+13e495798 0.0 1005145
20 may, thu
thu2000:00+12se41059100 0.0 1003165
03:00+13sse41357100 0.0 1000279
06:00+14se2481100 0.9 1000108
09:00+20sw61157100 1.1 999872
12:00+24w694599 0.0 10001667
15:00+27wnw6103913 0.0 9992423
18:00+21n785436 0.0 1002757
21:00+15n511590 0.0 1006360